Location: Chèvreville
(49.1099°N, 2.8495°E)
Time: 15:15:44
(UTC+00:00)

SO-50 - Pass Details

Date: 13 December 2023
Orbit: 608 x 661 km, 64.6° (Epoch: 28 February)

Event Time Altitude Azimuth Distance (km) Brightness Sun altitude
Exits shadow 04:37:43 11° 12° (NNE) 1,974 ? -27.7°
Drops below altitude 10° 04:38:05 10° 16° (NNE) 2,035 ? -27.6°
Sets 04:41:36 0° 44° (NE) 2,930 ? -27.1°
